TimeCDT,TemperatureF,Dew PointF,Humidity,Sea Level PressureIn,VisibilityMPH,Wind Direction,Wind SpeedMPH,Gust SpeedMPH,PrecipitationIn,Events,Conditions,WindDirDegrees,DateUTC
12:53 AM,72.0,66.9,84,30.02,10.0,Calm,Calm,-,N/A,,Clear,0,2013-08-28 05:53:00
1:53 AM,72.0,66.9,84,30.03,10.0,Calm,Calm,-,N/A,,Clear,0,2013-08-28 06:53:00
2:53 AM,69.1,66.9,93,30.02,10.0,Calm,Calm,-,N/A,,Mostly Cloudy,0,2013-08-28 07:53:00
3:53 AM,68.0,66.0,93,30.03,10.0,Calm,Calm,-,N/A,,Clear,0,2013-08-28 08:53:00
4:53 AM,66.9,66.0,97,30.03,10.0,Calm,Calm,-,N/A,,Clear,0,2013-08-28 09:53:00
5:53 AM,68.0,66.0,93,30.04,10.0,Calm,Calm,-,N/A,,Scattered Clouds,0,2013-08-28 10:53:00
6:53 AM,66.9,64.9,93,30.06,10.0,Calm,Calm,-,N/A,,Mostly Cloudy,0,2013-08-28 11:53:00
7:53 AM,73.0,66.9,81,30.07,10.0,Calm,Calm,-,N/A,,Mostly Cloudy,0,2013-08-28 12:53:00
8:53 AM,79.0,69.1,72,30.07,10.0,South,3.5,-,N/A,,Clear,180,2013-08-28 13:53:00
9:53 AM,82.0,68.0,62,30.07,10.0,SSW,8.1,-,N/A,,Clear,210,2013-08-28 14:53:00
10:53 AM,86.0,66.0,51,30.08,10.0,South,6.9,-,N/A,,Clear,190,2013-08-28 15:53:00
11:53 AM,90.0,64.0,42,30.07,10.0,SW,6.9,17.3,N/A,,Clear,220,2013-08-28 16:53:00
12:53 PM,91.9,63.0,38,30.05,10.0,South,9.2,17.3,N/A,,Clear,190,2013-08-28 17:53:00
1:53 PM,91.9,63.0,38,30.04,10.0,South,8.1,-,N/A,,Partly Cloudy,190,2013-08-28 18:53:00
2:53 PM,93.9,64.9,38,30.01,10.0,SSW,8.1,-,N/A,,Partly Cloudy,210,2013-08-28 19:53:00
3:53 PM,93.0,64.9,39,30.00,10.0,WSW,4.6,-,N/A,,Mostly Cloudy,250,2013-08-28 20:53:00
4:53 PM,93.9,64.9,38,29.99,10.0,SSW,4.6,-,N/A,,Scattered Clouds,210,2013-08-28 21:53:00
5:53 PM,93.0,64.9,39,29.99,10.0,West,4.6,-,N/A,,Clear,260,2013-08-28 22:53:00
6:53 PM,91.9,66.0,42,29.99,10.0,NW,4.6,-,N/A,,Clear,310,2013-08-28 23:53:00
7:53 PM,82.9,71.1,67,29.99,10.0,North,3.5,-,N/A,,Clear,10,2013-08-29 00:53:00
8:53 PM,78.1,70.0,76,30.00,10.0,Calm,Calm,-,N/A,,Clear,0,2013-08-29 01:53:00
9:53 PM,75.9,69.1,79,30.02,10.0,Calm,Calm,-,N/A,,Clear,0,2013-08-29 02:53:00
10:53 PM,77.0,69.1,76,30.02,10.0,East,3.5,-,N/A,,Clear,100,2013-08-29 03:53:00
11:53 PM,79.0,68.0,69,30.01,10.0,ESE,4.6,-,N/A,,Clear,120,2013-08-29 04:53:00